Home   Weather   Rochester   Past weeks

Flag for USA Past Weather in Rochester, New York, USA — Yesterday and Last 2 Weeks

Now
54 °F

Mostly cloudy.


Feels Like: 52 °F
Forecast: 56 / 65 °F
Wind: 8 mph from Southeast

Location: Greater Rochester International Airport

Current Time: Oct 1, 2016 at 3:09:19 AM

Latest Report: Oct 1, 2016 at 1:54 AM


Visibility: 10 mi

Pressure: 30.26 "Hg

Humidity: 90%

Dew Point: 51 °F

Location of RochesterLocation

Past Weather in Rochester — Graph

°F

Rochester Temperature Yesterday

Maximum temperature yesterday: 66 °F (at 3:54 PM)
Minimum temperature yesterday: 54 °F (at 8:54 PM)
Average temperature yesterday: 59 °F

High & Low Weather Summary for the Past Weeks

 TemperatureHumidityPressure
High85 °F (Sep 22, 2:54 PM)100% (Sep 18, 4:54 AM)30.37 "Hg (Sep 18, 4:54 AM)
Low43 °F (Sep 25, 5:54 AM)27% (Sep 27, 2:54 PM)29.82 "Hg (Sep 27, 3:54 PM)
Average64 °F72%30.12 "Hg
* Reported Sep 16 1:54 AM — Oct 1 1:54 AM, Rochester, Weather by CustomWeather, © 2016

Note: Actual official high and low records may vary slightly from our data, if they occured in-between our weather recording intervals... More about our weather records

Advertising

Rochester Weather History for the Previous 24 Hours

Scroll right to see more
 ConditionsComfort  
Time TempWeatherWind HumidityBarometerVisibility
1:54 AM
Sat, Oct 1
54 °FMostly cloudy.8 mph90%30.26 "Hg10 mi
12:54 AM54 °FOvercast.9 mph90%30.26 "Hg10 mi
11:54 PM
Fri, Sep 30
54 °FLow clouds.8 mph90%30.28 "Hg10 mi
10:54 PM54 °FLow clouds.9 mph90%30.29 "Hg10 mi
9:54 PM54 °FLow clouds.9 mph90%30.31 "Hg10 mi
8:54 PM54 °FDrizzle. Mostly cloudy.14 mph90%30.32 "Hg9 mi
7:54 PM55 °FLight rain. Fog.12 mph90%30.31 "Hg5 mi
6:54 PM60 °FMostly cloudy.16 mph65%30.31 "Hg10 mi
5:54 PM63 °FLight rain. Mostly cloudy.12 mph58%30.29 "Hg10 mi
4:54 PM64 °FMostly cloudy.10 mph54%30.28 "Hg10 mi
3:54 PM66 °FMostly cloudy.12 mph54%30.28 "Hg10 mi
2:54 PM63 °FMostly cloudy.12 mph58%30.30 "Hg10 mi
1:54 PM63 °FMostly cloudy.13 mph56%30.32 "Hg10 mi
12:54 PM62 °FMostly cloudy.15 mph56%30.34 "Hg10 mi
11:54 AM60 °FOvercast.9 mph62%30.36 "Hg10 mi
10:54 AM59 °FOvercast.10 mph60%30.35 "Hg10 mi
9:54 AM58 °FOvercast.10 mph62%30.35 "Hg10 mi
8:54 AM57 °FMostly cloudy.12 mph64%30.35 "Hg10 mi
7:54 AM57 °FMostly cloudy.9 mph67%30.35 "Hg10 mi
6:54 AM57 °FOvercast.13 mph69%30.35 "Hg10 mi
5:54 AM58 °FOvercast.10 mph70%30.34 "Hg10 mi
4:54 AM58 °FMostly cloudy.9 mph72%30.35 "Hg10 mi
3:54 AM58 °FOvercast.7 mph72%30.34 "Hg10 mi
Weather by CustomWeather, © 2016

See weather overviewHow to use our weather pages